Regional Weather Roundup
Issued by NWS Cleveland, OH

Home | Current Version | Previous Version | Graphics & Text | Print | Product List | Glossary Off
Versions: 1 2 3 4 5 6 7 8 9 10 11 12 13 14 15 16 17 18 19 20 21 22 23 24 25 26 27 28 29 30 31 32 33 34 35 36 37 38 39 40 41 42 43 44 45 46 47 48 49 50

000
ASUS41 KCLE 281310
RWRCLE
OHIO REGIONAL WEATHER ROUNDUP
NATIONAL WEATHER SERVICE CLEVELAND, OH
900 AM EDT SAT MAR 28 2015

NOTE: "FAIR" INDICATES FEW OR NO CLOUDS BELOW 12,000 FEET WITH NO
SIGNIFICANT WEATHER AND/OR OBSTRUCTIONS TO VISIBILITY.

OHZ001>008-015>018-024>027-034-035-043-044-281400-
   NORTHWEST OHIO

CITY           SKY/WX    TMP DP  RH WIND       PRES   REMARKS
DEFIANCE       SUNNY     20   9  62 N9        30.28R WCI   9
FINDLAY        SUNNY     20   9  62 N8        30.25R WCI  10
TOLEDO EXPRESS SUNNY     18   8  65 N8        30.26R WCI   8
TOLEDO EXEC    PTSUNNY   20   7  57 N9        30.27R WCI   9
LIMA           SUNNY     19   8  62 N9        30.24R WCI   8
$$

OHZ009>014-019>023-028>033-038-089-281400-
   NORTHEAST OHIO

CITY           SKY/WX    TMP DP  RH WIND       PRES   REMARKS
CLE-HOPKINS    MOSUNNY   19   6  57 N15       30.22R WCI   5
CLE-LAKEFRONT  SUNNY     20   7  57 NW17      30.20R WCI   5
CUY CO. ARPT   SUNNY     19   9  63 N13G23    30.18R WCI   7
LORAIN-ELYRIA  CLOUDY    20  10  65 N16G25    30.21R WCI   6
ASHTABULA      CLOUDY    16   7  67 N8        30.15R WCI   5
AKRON-CANTON   LGT SNOW  19  12  74 NW10      30.13R WCI   7
WOOSTER        MOSUNNY   18  10  71 N18       30.17R WCI   2
MANSFIELD      CLOUDY    14   9  80 NW6       30.17R WCI   5
YOUNGSTOWN     PTSUNNY   16   7  67 N14       30.12R WCI   2
$$

OHZ042-051>053-060>062-070>072-077>081-281400-
  SOUTHWEST OHIO

CITY           SKY/WX    TMP DP  RH WIND       PRES   REMARKS
CINC-COVINGTON SUNNY     22  15  75 N8        30.23R WCI  12
CINC-LUNKEN    SUNNY     24  16  71 N7        30.27R WCI  16
HAMILTON       SUNNY     24  16  71 NE7       30.26R WCI  16
DAYTON         MOSUNNY   22  11  62 N13       30.24R WCI  10
WRIGHT-PAT AFB MOSUNNY   21   8  56 N12       30.24R WCI   9
DAYTON GENERAL SUNNY     22  15  75 NE10      30.22R WCI  11
WILMINGTON     CLOUDY    21  13  71 NE12      30.21R WCI   9
$$

OHZ036-037-039>041-045>050-054>059-063>069-073>076-082>088-281400-
  CENTRAL AND SOUTHEAST OHIO

CITY           SKY/WX    TMP DP  RH WIND       PRES   REMARKS
COLUMBUS       MOSUNNY   19   9  65 N10       30.22R WCI   7
OSU AIRPORT    SUNNY     19   8  62 N10       30.22R WCI   7
BOLTON FIELD   SUNNY     18   9  68 N8        30.21R WCI   7
RICKENBACK AFB SUNNY     20   8  59 N8        30.23R WCI  10
NEWARK         SUNNY     18   9  68 NW8       30.21R WCI   8
MARION         SUNNY     18  10  71 NW9       30.22R WCI   7
LANCASTER      SUNNY     21  10  62 N13       30.22R WCI   9
ZANESVILLE     SUNNY     17   7  64 NW12      30.19R WCI   4
NEW PHILLY     SUNNY     20   8  60 NW12      30.18R WCI   8
$$


USA.gov is the U.S. government's official web portal to all federal, state and local government web resources and services.